GW0980 Weather Reports


Display with metric or nautical units.
time (UTC)temp
F
wind
direction
speed
MPH
gust
MPH
rain 1hr
in
rain 24hr
in
rain mn
in
humidity
%
barometer
mb
20260506061541 53 276 2.0 7.0 0.00 0.00 0.00 87 1017.8
20260506044553 53 281 6.0 12.0 0.00 0.00 0.00 85 1017.4
20260506043037 54 276 5.0 11.0 0.00 0.00 0.00 84 1017.2
20260506041549 54 294 5.0 13.0 0.00 0.00 0.00 84 1017.1
20260506040046 54 301 6.0 13.0 0.00 0.00 0.00 83 1017.0
20260506034539 55 283 5.0 11.0 0.00 0.00 0.00 82 1016.7
20260506033042 55 269 4.0 12.0 0.00 0.00 0.00 81 1016.4
20260506031554 56 281 4.0 10.0 0.00 0.00 0.00 79 1016.2
20260506030058 58 269 4.0 10.0 0.00 0.00 0.00 77 1016.1
20260506024544 59 272 5.0 13.0 0.00 0.00 0.00 75 1015.8
20260506023042 60 257 6.0 13.0 0.00 0.00 0.00 73 1015.7
20260506021538 61 264 5.0 11.0 0.00 0.00 0.00 72 1015.6
20260506020038 62 269 4.0 12.0 0.00 0.00 0.00 70 1015.6
20260506014545 63 267 4.0 8.0 0.00 0.00 0.00 68 1015.5
20260506013050 63 294 6.0 11.0 0.00 0.00 0.00 67 1015.5
20260506011545 64 271 5.0 8.0 0.00 0.00 0.00 67 1015.5
20260506010043 66 285 4.0 11.0 0.00 0.00 0.00 64 1015.4
20260506004621 66 278 5.0 7.0 0.00 0.00 0.00 63 1015.4
20260506003038 66 270 3.0 7.0 0.00 0.00 0.00 65 1015.3
20260506001538 67 274 3.0 8.0 0.00 0.00 0.00 64 1015.3
20260506000038 67 250 3.0 7.0 0.00 0.00 0.00 65 1015.2
20260505234606 67 281 3.0 6.0 0.00 0.00 0.00 63 1015.4
20260505233038 67 247 3.0 7.0 0.00 0.00 0.00 64 1015.5
20260505231542 66 249 5.0 8.0 0.00 0.00 0.00 64 1015.5
20260505230038 68 257 3.0 5.0 0.00 0.00 0.00 64 1015.7
20260505224540 67 279 4.0 8.0 0.00 0.00 0.00 62 1015.7
20260505223051 68 282 2.0 4.0 0.00 0.00 0.00 62 1015.8
20260505221557 67 279 1.0 3.0 0.00 0.00 0.00 62 1015.8
20260505220048 67 277 1.0 3.0 0.00 0.00 0.00 62 1015.9
20260505214547 65 263 0.0 5.0 0.00 0.00 0.00 65 1016.1
20260505213047 64 275 1.0 3.0 0.00 0.00 0.00 66 1016.4
20260505211539 64 311 0.0 2.0 0.00 0.00 0.00 69 1016.5
20260505210043 65 0 0.0 4.0 0.00 0.00 0.00 65 1016.6
20260505204541 64 0 0.0 1.0 0.00 0.00 0.00 69 1016.6
20260505203038 62 0 1.0 8.0 0.00 0.00 0.00 71 1016.9
20260505201538 61 272 0.0 4.0 0.00 0.00 0.00 71 1017.0
20260505200058 61 0 1.0 2.0 0.00 0.00 0.00 71 1017.0
20260505194539 60 162 1.0 3.0 0.00 0.00 0.00 74 1017.1
20260505193042 60 295 1.0 2.0 0.00 0.00 0.00 72 1017.1
20260505191541 60 167 0.0 2.0 0.00 0.00 0.00 74 1017.2
20260505190047 59 0 0.0 3.0 0.00 0.00 0.00 75 1017.2
20260505184538 58 0 0.0 4.0 0.00 0.00 0.00 74 1017.1
20260505183048 59 309 0.0 1.0 0.00 0.00 0.00 74 1017.1
20260505181543 58 0 0.0 1.0 0.00 0.00 0.00 76 1016.9
20260505180043 58 291 0.0 2.0 0.00 0.00 0.00 75 1016.8
20260505174540 58 0 0.0 2.0 0.00 0.00 0.00 75 1016.8
20260505173044 57 0 0.0 5.0 0.00 0.00 0.00 77 1016.7
20260505171545 57 0 0.0 1.0 0.00 0.00 0.00 77 1016.6
20260505170046 56 0 0.0 1.0 0.00 0.00 0.00 79 1016.5
20260505164539 55 0 0.0 4.0 0.00 0.00 0.00 79 1016.6
20260505163043 55 308 0.0 3.0 0.00 0.00 0.00 79 1016.3
20260505161542 55 0 0.0 1.0 0.00 0.00 0.00 80 1016.4
20260505153048 54 0 0.0 0.0 0.00 0.00 0.00 83 1016.5
20260505151545 53 0 0.0 0.0 0.00 0.00 0.00 84 1016.3
20260505124549 53 0 0.0 1.0 0.00 0.00 0.00 85 1015.5
20260505123045 53 0 0.0 1.0 0.00 0.00 0.00 85 1015.3
20260505121543 53 298 0.0 3.0 0.00 0.00 0.00 84 1015.2
20260505120048 53 295 2.0 4.0 0.00 0.00 0.00 84 1015.1
20260505114542 53 282 2.0 3.0 0.00 0.00 0.00 84 1015.2
20260505113042 53 278 1.0 6.0 0.00 0.00 0.00 84 1015.2
20260505111542 53 283 4.0 8.0 0.00 0.00 0.00 84 1015.1
20260505101544 53 277 5.0 11.0 0.00 0.00 0.00 84 1014.6
20260505100043 53 272 5.0 12.0 0.00 0.00 0.00 84 1014.6
20260505094540 53 273 5.0 11.0 0.00 0.00 0.00 84 1014.5
20260505093037 53 276 3.0 8.0 0.00 0.00 0.00 84 1014.6
20260505091539 53 266 5.0 11.0 0.00 0.00 0.00 84 1014.5
20260505090538 53 284 5.0 11.0 0.00 0.00 0.00 84 1014.5
20260505084548 53 271 4.0 11.0 0.00 0.00 0.00 84 1014.4
20260505083041 52 278 5.0 11.0 0.00 0.00 0.00 85 1014.2
20260505081544 52 293 3.0 9.0 0.00 0.00 0.00 85 1014.2
20260505080052 53 268 3.0 7.0 0.00 0.00 0.00 85 1014.2
20260505074544 53 251 4.0 11.0 0.00 0.00 0.00 85 1014.2
20260505073046 53 266 7.0 14.0 0.00 0.00 0.00 85 1013.8
20260505071546 53 265 6.0 13.0 0.00 0.00 0.00 85 1013.8
20260505070052 53 267 6.0 11.0 0.00 0.00 0.00 86 1013.7